Location: Harwich
(41.6860°N, 70.0760°W)
Time: 15:41:19
(UTC-04:00)

Cosmos 2228 - Visible Passes

Search period start: 27 May 2018 00:00
Search period end: 06 June 2018 00:00
Orbit: 588 x 620 km, 82.5° (Epoch: 27 May)

Date Brightness Start Highest point End Pass type
(mag) Time Alt. Az. Time Alt. Az. Time Alt. Az.
27 May 4.8 21:57:54 10° NNE 22:00:51 18° ENE 22:01:40 17° E visible
27 May 4.0 23:34:34 10° NNW 23:38:31 38° W 23:38:31 38° W visible
28 May 4.1 22:09:58 10° NNE 22:13:44 28° ENE 22:14:27 27° E visible
28 May 4.7 23:47:44 10° NW 23:51:08 23° W 23:51:18 23° W visible
29 May 3.4 22:22:22 10° N 22:26:32 47° ENE 22:27:16 42° ESE visible
30 May 5.4 00:01:23 10° NW 00:03:38 14° W 00:04:07 14° W visible
30 May 2.9 22:34:57 10° N 22:39:17 82° E 22:40:05 58° SSE visible
31 May 5.2 21:12:12 10° NE 21:14:00 12° ENE 21:15:49 10° E visible
31 May 3.4 22:47:43 10° NNW 22:51:58 58° W 22:52:55 46° SW visible
01 Jun 4.7 21:23:45 10° NNE 21:26:57 20° ENE 21:28:55 15° ESE visible
01 Jun 4.3 23:00:40 10° NNW 23:04:35 34° W 23:05:46 29° WSW visible
02 Jun 4.0 21:35:55 10° NNE 21:39:49 32° ENE 21:41:46 22° ESE visible
02 Jun 5.0 23:13:54 10° NW 23:17:09 21° W 23:18:38 18° WSW visible
03 Jun 3.3 21:48:21 10° N 21:52:36 53° E 21:54:40 28° SE visible
03 Jun 5.6 23:27:45 10° WNW 23:29:39 13° W 23:31:31 10° WSW visible
04 Jun 3.0 22:00:58 10° N 22:05:20 89° W 22:07:35 28° S visible
05 Jun 3.7 22:13:47 10° NNW 22:18:00 52° W 22:20:30 23° SSW visible
